OneWeb SL0211

operational
NORAD ID: 48767 Int'l Des: 2021-045 Owner: ONEWEBN Country: UK Constellation: oneweb
LEOCIRCULARPOLARONEWEB_TYPE

About OneWeb SL0211

Description loading...

Live Position

Loading 3D Globe...

Upcoming Passes

Altitude History

Altitude vs Time

uPlot chart will show altitude changes over time

Two-Line Element Set

1 48767U 21045A 25258.59732350 .00000120 00000-0 28196-3 0 9992
2 48767 87.9035 313.9237 0001590 100.5763 259.5547 13.16084889208321
Epoch: Sep 15, 2025 • Age: 12 hours

Current Status

Altitude 1204.5 km
Velocity 7.26 km/s
Sub-Earth Point 40.07°N, 106.91°E
Launch Date May 28, 2021
Age 4.3 years
Type internet

Technical Details

Classification Payload
Mass 148.00 kg
Dry Mass 140.00 kg
Total Mass 148.00 kg
Length 1.30 m
Diameter 1.00 m
Span 5.00 m
Shape Trapezoid+2 pan
Manufacturer ONEWUS
Bus Type ARROW
Phase Status In Orbit
Owner/State ONEWEBN/UK

Large Constellations

Loading constellations...